Sierra Vista, AZ

12:45 PM MST on February 22, 2018 (GMT -0700)
Sierra Vista Municipal-Libby Army Air Field

Weather History for KFHU - December, 2012

Change the Weather History Date:

Monday, December 3, 2012

  Actual Average Record
Temperature  
Mean Temperature 56 °F -  
Max Temperature 69 °F 60 °F 73 °F (1986)
Min Temperature 44 °F 38 °F 19 °F (1991)
Degree Days  
Heating Degree Days 8    
Growing Degree Days 6 (Base 50)    
Moisture  
Dew Point 25 °F    
Average Humidity 31    
Maximum Humidity 50    
Minimum Humidity 17    
Precipitation  
Precipitation 0.00 in - - ()
Sea Level Pressure  
Sea Level Pressure 30.09 in    
Wind  
Wind Speed 5 mph (SW)    
Max Wind Speed 12 mph    
Max Gust Speed 18 mph    
Visibility 10 miles    
Events      
Averages and records for this station are not official NWS values.
T = Trace of Precipitation, MM = Missing Value Source: NWS Daily Summary

Daily Weather History Graph

Daily Weather History Graph

Search for Another Location

Airport or City:

Trip Planner

Search our weather history database for the weather conditions in past years. The results will help you decide how hot, cold, wet, or windy it might be!

Date:

Astronomy

Dec. 03, 2012 Rise Set
Actual Time 7:05 AM MST 5:17 PM MST
Civil Twilight 6:38 AM MST 5:44 PM MST
Nautical Twilight 6:08 AM MST 6:14 PM MST
Astronomical Twilight 5:38 AM MST 6:43 PM MST
Moon 9:57 PM MST (12/3) 10:38 AM MST (12/3)
Length of Visible Light 11h 05m
Length of Day
10h 12m
Waning Gibbous, 77% of the Moon is Illuminated
Dec 3
Waning Gibbous
Dec 6
Last Quarter
Dec 13
New
Dec 19
First Quarter
Dec 28
Full

Hourly Weather History & Observations

Time (MST) Temp. Windchill Dew Point Humidity Pressure Visibility Wind Dir Wind Speed Gust Speed Precip Events Conditions
12:55 AM 53.6 °F - 17.6 °F 24% 30.02 in 10.0 mi South 4.6 mph - N/A   Clear
1:55 AM 48.2 °F - 19.4 °F 32% 30.03 in 10.0 mi Calm Calm - N/A   Clear
2:55 AM 51.8 °F - 19.4 °F 28% 30.02 in 10.0 mi SSE 5.8 mph - N/A   Clear
3:55 AM 46.4 °F 42.9 °F 19.4 °F 34% 30.04 in 10.0 mi SSE 6.9 mph - N/A   Clear
4:55 AM 50.0 °F - 21.2 °F 32% 30.02 in 10.0 mi SSE 6.9 mph - N/A   Scattered Clouds
5:55 AM 48.2 °F - 19.4 °F 32% 30.08 in 10.0 mi North 3.5 mph - N/A   Mostly Cloudy
6:55 AM 44.6 °F 43.1 °F 19.4 °F 37% 30.10 in 10.0 mi Variable 3.5 mph - N/A   Mostly Cloudy
7:55 AM 48.2 °F - 21.2 °F 34% 30.14 in 10.0 mi WSW 8.1 mph - N/A   Mostly Cloudy
8:55 AM 57.2 °F - 23.0 °F 27% 30.14 in 10.0 mi Calm Calm - N/A   Partly Cloudy
9:55 AM 60.8 °F - 24.8 °F 25% 30.13 in 10.0 mi Calm Calm - N/A   Partly Cloudy
10:55 AM 62.6 °F - 24.8 °F 24% 30.13 in 10.0 mi Calm Calm - N/A   Scattered Clouds
11:55 AM 66.2 °F - 26.6 °F 23% 30.09 in 10.0 mi ESE 4.6 mph - N/A   Mostly Cloudy
12:55 PM 69.8 °F - 24.8 °F 18% 30.05 in 10.0 mi SE 5.8 mph - N/A   Scattered Clouds
1:55 PM 69.8 °F - 23.0 °F 17% 30.04 in 10.0 mi WNW 11.5 mph 18.4 mph N/A   Mostly Cloudy
2:55 PM 69.8 °F - 24.8 °F 18% 30.04 in 10.0 mi West 10.4 mph - N/A   Partly Cloudy
3:55 PM 68.0 °F - 28.4 °F 23% 30.04 in 10.0 mi Variable 5.8 mph - N/A   Partly Cloudy
4:55 PM 64.4 °F - 30.2 °F 28% 30.06 in 10.0 mi NW 6.9 mph - N/A   Partly Cloudy
5:55 PM 60.8 °F - 30.2 °F 31% 30.09 in 10.0 mi WSW 5.8 mph - N/A   Scattered Clouds
6:55 PM 57.2 °F - 32.0 °F 38% 30.14 in 10.0 mi SW 8.1 mph - N/A   Mostly Cloudy
7:55 PM 57.2 °F - 32.0 °F 38% 30.14 in 10.0 mi WSW 6.9 mph - N/A   Mostly Cloudy
8:55 PM 53.6 °F - 32.0 °F 44% 30.14 in 10.0 mi West 8.1 mph - N/A   Mostly Cloudy
9:55 PM 53.6 °F - 32.0 °F 44% 30.14 in 10.0 mi WSW 6.9 mph - N/A   Mostly Cloudy
10:55 PM 53.6 °F - 32.0 °F 44% 30.14 in 10.0 mi West 11.5 mph - N/A   Scattered Clouds
11:55 PM 51.8 °F - 33.8 °F 50% 30.14 in 10.0 mi West 9.2 mph - N/A   Mostly Cloudy